Location: Township of Marena
(38.1747°N, 99.6798°W)
Time: 10:20:54
(UTC+00:00)

CENTAUR R/B - Pass Details

Date: 26 October 2020
Orbit: 749 x 1439 km, 63.5° (Epoch: 22 November)

Event Time Altitude Azimuth Distance (km) Brightness Sun altitude
Exits shadow 10:44:29 49° 329° (NNW) 1,232 2.8 -27.0°
Drops below altitude 10° 10:50:29 10° 25° (NNE) 2,934 5.3 -25.8°
Sets 10:53:30 0° 30° (NNE) 4,009 6.2 -25.3°
